Home   Weather   Torreón   Past weeks

Flag for Mexico Past Weather in Torreón, Coahuila de Zaragoza, Mexico — Yesterday and Last 2 Weeks

Now
77 °F

Broken clouds.


Feels Like: 78 °F
Forecast: N/A
Wind: 12 mph from Southeast

Location: Torreon - Coah.

Current Time: Jan 17, 2017 at 5:51:36 pm

Latest Report: Jan 17, 2017 at 4:40 pm


Visibility: 15 mi

Pressure: 29.90 "Hg (26.30 "Hg at 1120m altitude)

Humidity: 32%

Dew Point: 45 °F

Location of TorreónLocation

Past Weather in Torreón — Graph

°F

Torreón Temperature Yesterday

Maximum temperature yesterday: 77 °F (at 3:49 pm)
Minimum temperature yesterday: 54 °F (at 7:40 am)
Average temperature yesterday: 67 °F

High & Low Weather Summary for the Past Weeks

 TemperatureHumidityPressure
High86 °F (Jan 6, 3:47 pm)77% (Jan 15, 4:40 am)30.55 "Hg (Jan 15, 4:40 am)
Low39 °F (Jan 8, 6:41 am)10% (Jan 12, 3:40 pm)29.62 "Hg (Jan 15, 5:46 pm)
Average68 °F30%30.06 "Hg
* Reported Jan 2 3:43 pm — Jan 17 3:50 pm, Torreón, Weather by CustomWeather, © 2017

Note: Actual official high and low records may vary slightly from our data, if they occured in-between our weather recording intervals... More about our weather records

Advertising

Torreón Weather History for the Previous 24 Hours

Scroll right to see more
 ConditionsComfort  
Time TempWeatherWind HumidityBarometerVisibility
3:50 pm
Tue, Jan 17
75 °FBroken clouds.17 mph31%29.91 "Hg15 mi
2:47 pm77 °FBroken clouds.7 mph30%29.69 "Hg15 mi
1:40 pm75 °FBroken clouds.8 mph31%29.94 "Hg10 mi
12:40 pm73 °FBroken clouds.9 mph31%29.97 "Hg10 mi
11:40 am73 °FPartly sunny.9 mph31%29.80 "Hg10 mi
10:40 am72 °FPartly sunny.8 mph29%30.00 "Hg10 mi
9:40 am72 °FPartly sunny.13 mph29%29.99 "Hg10 mi
8:42 am70 °FPartly sunny.9 mph25%29.78 "Hg10 mi
7:44 am68 °FPartly sunny.7 mph33%29.96 "Hg10 mi
6:40 am63 °FPassing clouds.No wind49%29.96 "Hg10 mi
4:40 am68 °FPassing clouds.5 mph30%29.92 "Hg10 mi
9:49 pm
Mon, Jan 16
64 °FPartly cloudy.No wind34%29.93 "Hg8 mi
8:44 pm68 °FPartly cloudy.No wind30%29.78 "Hg7 mi
7:47 pm70 °FPartly cloudy.No wind29%29.94 "Hg7 mi
6:40 pm70 °FOvercast.No wind29%29.92 "Hg15 mi
5:43 pm73 °FPartly sunny.No wind23%29.75 "Hg15 mi
Weather by CustomWeather, © 2017

See weather overviewHow to use our weather pages